Flag for Canada Weather past 2 weeks in Brantford, Ontario, Canada

Now
3 °F

Clear.


Feels Like: -8 °F
Forecast: -2 / 21 °F
Wind: 6 mph from West

Location: Hamilton Airport

Current Time: Jan 28, 2015 at 1:39:32 AM

Latest Report: Jan 28, 2015 at 1:00 AM


Visibility: 15 mi

Pressure: 30.20 "Hg

Humidity: 66%

Dew point: -6 °F

Location of BrantfordLocation

Historic Weather in Brantford — Graph

°F

Brantford temperature yesterday

Maximum temperature yesterday: 18 °F (at 3:00 PM)
Minimum temperature yesterday: 9 °F (at 9:00 PM)
Average temperature yesterday: 12 °F

Past Weeks' High & Low Weather Summary

 TemperatureHumidityPressure
High41 °F (Jan 18, 3:00 AM)100% (Jan 24, 7:00 PM)30.81 "Hg (Jan 24, 7:00 PM)
Low-4 °F (Jan 13, 6:00 AM)41% (Jan 16, 3:00 PM)29.50 "Hg (Jan 24, 4:00 PM)
Average19 °F73%30.07 "Hg
* Reported Midnight between Jan 12 and Jan 13 — Midnight between Jan 27 and Jan 28, Brantford, Weather by CustomWeather, © 2014

Note: Actual official high and low records may vary slightly from our data, if they occured in-between our weather recording intervals... More about our weather records

Advertising

Brantford weather history for previous 24 hours

 ConditionsComfort  
Time TempWeatherWind HumidityBarometerVisibility
12:00 AM
Jan 28
3 °FClear.3 mph60%30.19 "Hg15 mi
11:00 PM
Jan 27
10 °FClear.3 mph47%30.17 "Hg15 mi
10:00 PM9 °FClear.7 mph51%30.17 "Hg15 mi
9:00 PM9 °FClear.7 mph47%30.16 "Hg15 mi
8:00 PM10 °FPassing clouds.6 mph47%30.17 "Hg15 mi
7:00 PM14 °FPassing clouds.10 mph48%30.16 "Hg15 mi
6:00 PM16 °FPassing clouds.7 mph45%30.15 "Hg15 mi
5:00 PM16 °FBroken clouds.7 mph53%30.13 "Hg15 mi
4:00 PM16 °FPartly sunny.6 mph57%30.11 "Hg15 mi
3:00 PM18 °FPartly sunny.7 mph58%30.09 "Hg15 mi
2:00 PM16 °FBroken clouds.5 mph67%30.08 "Hg15 mi
1:00 PM14 °FLight snow. Broken clouds.8 mph73%30.09 "Hg10 mi
12:00 PM14 °FLight snow. Broken clouds.8 mph73%30.09 "Hg8 mi
11:00 AM12 °FLight snow. Broken clouds.8 mph79%30.09 "Hg5 mi
10:00 AM10 °FLight snow. Cloudy.10 mph79%30.08 "Hg2 mi
9:00 AM10 °FLight snow. Overcast.10 mph79%30.07 "Hg2 mi
8:00 AM10 °FLight snow. Overcast.12 mph72%30.05 "Hg3 mi
7:00 AM10 °FLight snow. Mostly cloudy.13 mph72%30.04 "Hg10 mi
6:00 AM10 °FLight snow. Overcast.12 mph72%30.02 "Hg10 mi
5:00 AM10 °FLight snow. Mostly cloudy.12 mph79%30.01 "Hg10 mi
4:00 AM12 °FLight snow. Mostly cloudy.13 mph67%30.00 "Hg8 mi
3:00 AM12 °FLight snow. Overcast.14 mph73%29.98 "Hg8 mi
2:00 AM12 °FLight snow. Mostly cloudy.15 mph73%29.98 "Hg6 mi
1:00 AM12 °FLight snow. Overcast.13 mph79%29.98 "Hg2 mi
Weather by CustomWeather, © 2014

See weather overviewHow to use our weather pages